162P/Siding Spring (2020)

Japanese version
Home page
Updated on October 27, 2020

---------------------------------------------------------------------

* Profile

* Pictures

* Orbital Elements

Epoch 2020 Dec. 17.0 TT = JDT 2459200.5
T 2020 Dec. 7.82007 TT                                  Rudenko
q   1.2891350            (2000.0)            P               Q
n   0.18141177     Peri.  357.13423     +0.87966223     -0.41197227
a   3.0904787      Node    30.91114     +0.44503714     +0.53678731
e   0.5828688      Incl.   27.55496     +0.16773882     +0.73630037
P   5.43
From 2176 observations 1990 Mar. 23-2020 Sept. 16, mean residual 0".8.

* Finding Charts

* Magnitudes Graph

        H = 13.7  G = 0.15

---------------------------------------------------------------------

The orbital elements are published on M.P.E.C. 2020-S188.
The charts are made with StellaNavigator Ver.10 (AstroArts).
The magnitudes graphs are made with Comet for Windows.

---------------------------------------------------------------------

Copyright(C) Seiichi Yoshida (comet@aerith.net). All rights reserved.